SCD 2

Last updated on Sun Jul 06 2025 00:02:27 GMT+0000 (Coordinated Universal Time)

1 25504U 98060A 25186.03081214 .00000371 00000+0 53184-4 0 9995 2 25504 24.9960 52.7182 0016970 55.6044 92.3278 14.45307991410043
UTC large
Height (km)
Speed (km/s)
/
Latitude / Longitude
Inclination (degrees)
Orbital Period (minutes)
Azimuth
Elevation
Range (km)
Doppler Factor

Next 0 passes for location: London (51.5072 / 0.1276)

Sorry there are no passes over London.